Preview of NWS' New Version of Forecast
This preview is not operational and should not be used for support decisions.

Regional Weather Roundup (RWR)

Issued by National Weather Service (NWS)

                            
000
ASUS45 KBOI 170610
RWRID 

IDAHO REGIONAL WEATHER ROUNDUP
NATIONAL WEATHER SERVICE BOISE ID
1100 PM MST SAT FEB 16 2019

NOTE: "FAIR" INDICATES FEW OR NO CLOUDS BELOW 12000 FEET
WITH NO SIGNIFICANT WEATHER AND/OR OBSTRUCTIONS TO VISIBILITY

IDZ012-014-170700-
SOUTHWEST IDAHO

  
CITY           SKY/WX    TMP DP  RH WIND       PRES   REMARKS
BOISE          MOCLDY    33  29  85 SE9       29.81S WCI  25          
CALDWELL       MOCLDY    34  30  85 W13       29.83R WCI  25          
MOUNTAIN HOME  FAIR      30 N/A N/A E8        29.81F WCI  23          
$$

IDZ016-017-170700-
SOUTHCENTRAL IDAHO

  
CITY           SKY/WX    TMP DP  RH WIND       PRES   REMARKS
JEROME         FAIR      27  25  92 MISG      29.80S                  
TWIN FALLS     FAIR      28  21  75 S15       29.79F WCI  16          
$$

IDZ019>023-170700-
SOUTHEAST IDAHO

  
CITY           SKY/WX    TMP DP  RH WIND       PRES   REMARKS
IDAHO FALLS    CLOUDY    25  21  85 SW8       29.80S WCI  16          
POCATELLO      CLOUDY    26  21  81 SW5       29.81S WCI  20          
REXBURG        FLURRIES  23  18  81 CALM      29.79S                  
$$

IDZ006-010-011-018-031-032-170700-
CENTRAL IDAHO MOUNTAINS

  
CITY           SKY/WX    TMP DP  RH WIND       PRES   REMARKS
MCCALL         HVY SNOW  24  21  88 CALM      29.69S VSB 1/4          
HAILEY         CLOUDY    21  18  86 NW5       29.77S WCI  15          
STANLEY          N/A     12   7  80 CALM      29.70S                  
SALMON         MOCLDY    21  17  84 SE5       29.78R WCI  15          
CHALLIS        CLOUDY    22  16  78 CALM      29.73S                  
$$

IDZ002-004-006-007-026-170700-
NORTHERN IDAHO

  
CITY           SKY/WX    TMP DP  RH WIND       PRES   REMARKS
LEWISTON       CLOUDY    34  31  88 SW3       29.85R                  
LOWELL         NOT AVBL                                               
COEUR D'ALENE  CLOUDY    31  30  96 SW5       29.81R WCI  26          
MULLAN PASS    CLOUDY    20  16  84 NW3       29.65S FOG              
$$